Regional Weather Roundup
Issued by NWS

Home | Current Version | Previous Version | Text Only | Print | Product List | Glossary On
Versions: 1 2 3 4 5 6 7 8 9 10 11 12 13 14 15 16 17 18 19 20 21 22 23 24 25 26 27 28
000
ASUS45 KBOI 300710
RWRID

IDAHO REGIONAL WEATHER ROUNDUP
NATIONAL WEATHER SERVICE BOISE ID
100 AM MDT FRI SEP 30 2016

NOTE: "FAIR" INDICATES FEW OR NO CLOUDS BELOW 12000 FEET
WITH NO SIGNIFICANT WEATHER AND/OR OBSTRUCTIONS TO VISIBILITY

IDZ012-014-300800-
SOUTHWEST IDAHO


CITY           SKY/WX    TMP DP  RH WIND       PRES   REMARKS
BOISE          CLOUDY    75  42  30 SE15G24   29.98S
CALDWELL       CLOUDY    69  47  45 E8        29.94S
MOUNTAIN HOME  CLOUDY    66  47  49 E14       30.01F
$$

IDZ016-017-300800-
SOUTHCENTRAL IDAHO


CITY           SKY/WX    TMP DP  RH WIND       PRES   REMARKS
BURLEY         PTCLDY    62  46  55 VRB3      30.12S
JEROME         MOCLDY    61  46  57 NE13      30.13S
TWIN FALLS     LGT RAIN  64  44  48 S13       30.10S
$$

IDZ019>023-300800-
SOUTHEAST IDAHO


CITY           SKY/WX    TMP DP  RH WIND       PRES   REMARKS
IDAHO FALLS    CLEAR     55  49  80 CALM      30.23S
POCATELLO      NOT AVBL
REXBURG        MOCLDY    54  48  80 CALM      30.23F
$$

IDZ006-010-011-018-031-032-300800-
CENTRAL IDAHO MOUNTAINS


CITY           SKY/WX    TMP DP  RH WIND       PRES   REMARKS
MCCALL         CLOUDY    55  44  66 E6        30.09S
HAILEY         MOCLDY    55  45  67 N6        30.24R
STANLEY          N/A     46  38  73 S3        30.25S
SALMON         CLOUDY    52  45  76 CALM      30.15S
CHALLIS        PTCLDY    49  44  83 S3        30.21S
$$

IDZ002-004-006-007-026-300800-
NORTHERN IDAHO


CITY           SKY/WX    TMP DP  RH WIND       PRES   REMARKS
LEWISTON       MOCLDY    67  50  54 S9        29.99R
LOWELL           N/A     55  53  93 CALM      29.97S
COEUR D`ALENE  LGT RAIN  59  52  77 SW9       29.99R
MULLAN PASS    MOCLDY    56  36  47 NW5       30.12F
$$




USA.gov is the U.S. government's official web portal to all federal, state and local government web resources and services.